• In India
  • List of Countries
  • For 7 days
  • Water Temperature
  • Satellite Maps
  • Weather Map
  • Weather Widgets
  • user-avatar
    Login

    Hourly Weather Consaca

    Today, 23 October, Tuesday

    Time Temperature Precipitation Wind Pressure Humidity
    00:00 +18°C° 0.1 mm 1 mps 619 mmHg 89%
    01:00 +18°C° 0.1 mm 1 mps 619 mmHg 89%
    02:00 +16°C° 0 mm 1 mps 619 mmHg 88%
    03:00 +16°C° 0 mm 1 mps 619 mmHg 88%
    04:00 +16°C° 0 mm 1 mps 619 mmHg 87%
    05:00 +18°C° 0 mm 1 mps 619 mmHg 84%
    06:00 +18°C° 0 mm 1 mps 619 mmHg 82%
    07:00 +19°C° 0 mm 1 mps 620 mmHg 79%
    08:00 +21°C° 0 mm 1 mps 621 mmHg 71%
    09:00 +23°C° 0 mm 1 mps 621 mmHg 62%
    10:00 +25°C° 0 mm 2 mps 622 mmHg 54%
    11:00 +25°C° 0.1 mm 2 mps 622 mmHg 54%
    12:00 +25°C° 0.1 mm 2 mps 621 mmHg 55%
    13:00 +26°C° 0.1 mm 3 mps 621 mmHg 55%
    14:00 +25°C° 0.3 mm 3 mps 620 mmHg 61%
    15:00 +24°C° 0.3 mm 3 mps 619 mmHg 67%
    16:00 +23°C° 0.3 mm 2 mps 619 mmHg 72%
    17:00 +21°C° 0.4 mm 2 mps 619 mmHg 79%
    18:00 +20°C° 0.4 mm 1 mps 619 mmHg 86%
    19:00 +19°C° 0.4 mm 1 mps 619 mmHg 93%
    20:00 +19°C° 0.3 mm 1 mps 619 mmHg 93%
    21:00 +19°C° 0.3 mm 1 mps 619 mmHg 92%
    22:00 +18°C° 0.3 mm 1 mps 620 mmHg 91%
    23:00 +18°C° 0.1 mm 1 mps 620 mmHg 90%

    Tomorrow, 24 October, Wednesday

    Time Temperature Precipitation Wind Pressure Humidity
    00:00 +18°C° 0.1 mm 1 mps 620 mmHg 89%
    01:00 +18°C° 0.1 mm 1 mps 619 mmHg 88%
    02:00 +18°C° 0 mm 1 mps 619 mmHg 88%
    03:00 +18°C° 0 mm 1 mps 619 mmHg 87%
    04:00 +18°C° 0 mm 1 mps 619 mmHg 87%
    05:00 +18°C° 0 mm 1 mps 619 mmHg 85%
    06:00 +18°C° 0 mm 1 mps 619 mmHg 83%
    07:00 +19°C° 0 mm 1 mps 620 mmHg 81%
    08:00 +21°C° 0 mm 1 mps 621 mmHg 73%
    09:00 +22°C° 0 mm 1 mps 621 mmHg 66%
    10:00 +24°C° 0 mm 2 mps 622 mmHg 58%
    11:00 +24°C° 0.3 mm 2 mps 621 mmHg 60%
    12:00 +25°C° 0.3 mm 2 mps 621 mmHg 63%
    13:00 +25°C° 0.3 mm 2 mps 620 mmHg 65%
    14:00 +24°C° 0.6 mm 2 mps 620 mmHg 69%
    15:00 +23°C° 0.6 mm 2 mps 619 mmHg 74%
    16:00 +21°C° 0.6 mm 2 mps 618 mmHg 79%
    17:00 +20°C° 0.8 mm 2 mps 618 mmHg 84%
    18:00 +20°C° 0.8 mm 1 mps 618 mmHg 89%
    19:00 +19°C° 0.8 mm 1 mps 618 mmHg 94%
    20:00 +19°C° 0.7 mm 1 mps 619 mmHg 94%
    21:00 +19°C° 0.7 mm 1 mps 620 mmHg 94%
    22:00 +19°C° 0.7 mm 1 mps 620 mmHg 94%
    23:00 +19°C° 0.4 mm 1 mps 620 mmHg 94%

    Day after tomorrow, 25 October, Thursday

    Time Temperature Precipitation Wind Pressure Humidity
    00:00 +19°C° 0.4 mm 1 mps 619 mmHg 94%
    01:00 +18°C° 0.4 mm 1 mps 619 mmHg 94%
    02:00 +18°C° 0.1 mm 1 mps 619 mmHg 93%
    03:00 +18°C° 0.1 mm 1 mps 618 mmHg 93%
    04:00 +18°C° 0.1 mm 1 mps 618 mmHg 93%
    05:00 +18°C° 0.1 mm 1 mps 618 mmHg 90%
    06:00 +19°C° 0.1 mm 1 mps 619 mmHg 88%
    07:00 +19°C° 0.1 mm 1 mps 619 mmHg 86%
    08:00 +20°C° 0.1 mm 1 mps 620 mmHg 79%
    09:00 +22°C° 0.1 mm 1 mps 621 mmHg 72%
    10:00 +24°C° 0.1 mm 1 mps 622 mmHg 65%
    11:00 +24°C° 0.3 mm 2 mps 621 mmHg 66%
    12:00 +24°C° 0.3 mm 2 mps 620 mmHg 66%
    13:00 +24°C° 0.3 mm 2 mps 620 mmHg 66%
    14:00 +24°C° 0.9 mm 2 mps 619 mmHg 71%
    15:00 +23°C° 0.9 mm 2 mps 618 mmHg 75%
    16:00 +21°C° 0.9 mm 2 mps 618 mmHg 79%
    17:00 +21°C° 1 mm 1 mps 618 mmHg 84%
    18:00 +20°C° 1 mm 1 mps 618 mmHg 89%
    19:00 +19°C° 1 mm 1 mps 618 mmHg 94%
    20:00 +17°C° 0.6 mm 0 mps 619 mmHg 93%
    21:00 +17°C° 0.6 mm 0 mps 619 mmHg 93%
    22:00 +17°C° 0.6 mm 0 mps 620 mmHg 93%
    23:00 +17°C° 0.2 mm 0 mps 619 mmHg 93%

    26 October, Friday

    Time Temperature Precipitation Wind Pressure Humidity
    00:00 +17°C° 0.2 mm 0 mps 619 mmHg 94%
    01:00 +17°C° 0.2 mm 0 mps 619 mmHg 94%
    02:00 +17°C° 0.2 mm 0 mps 618 mmHg 95%
    03:00 +16°C° 0.2 mm 0 mps 618 mmHg 95%
    04:00 +16°C° 0.2 mm 0 mps 618 mmHg 96%
    05:00 +17°C° 0.2 mm 0 mps 618 mmHg 94%
    06:00 +17°C° 0.2 mm 0 mps 619 mmHg 92%
    07:00 +17°C° 0.2 mm 0 mps 619 mmHg 90%
    08:00 +20°C° 0.1 mm 1 mps 620 mmHg 85%
    09:00 +21°C° 0.1 mm 1 mps 620 mmHg 81%
    10:00 +21°C° 0.1 mm 2 mps 621 mmHg 76%
    11:00 +21°C° 0.5 mm 2 mps 620 mmHg 75%
    12:00 +23°C° 0.5 mm 2 mps 620 mmHg 74%
    13:00 +23°C° 0.5 mm 2 mps 619 mmHg 73%
    14:00 +23°C° 0.8 mm 2 mps 619 mmHg 75%
    15:00 +21°C° 0.8 mm 2 mps 618 mmHg 78%
    16:00 +21°C° 0.8 mm 2 mps 618 mmHg 80%
    17:00 +21°C° 0.7 mm 1 mps 618 mmHg 84%
    18:00 +20°C° 0.7 mm 1 mps 619 mmHg 88%
    19:00 +19°C° 0.7 mm 1 mps 619 mmHg 92%
    20:00 +19°C° 0.6 mm 1 mps 619 mmHg 92%
    21:00 +19°C° 0.6 mm 1 mps 620 mmHg 91%
    22:00 +19°C° 0.6 mm 1 mps 620 mmHg 91%
    23:00 +19°C° 0.5 mm 1 mps 620 mmHg 92%

    27 October, Saturday

    Time Temperature Precipitation Wind Pressure Humidity
    00:00 +19°C° 0.5 mm 1 mps 619 mmHg 92%
    01:00 +18°C° 0.5 mm 1 mps 619 mmHg 92%
    02:00 +18°C° 0.1 mm 1 mps 618 mmHg 91%
    03:00 +18°C° 0.1 mm 1 mps 618 mmHg 91%
    04:00 +18°C° 0.1 mm 1 mps 618 mmHg 90%
    05:00 +19°C° 0 mm 1 mps 619 mmHg 88%
    06:00 +19°C° 0 mm 1 mps 619 mmHg 86%
    07:00 +19°C° 0 mm 1 mps 620 mmHg 85%
    08:00 +20°C° 0.1 mm 2 mps 621 mmHg 78%
    09:00 +21°C° 0.1 mm 2 mps 621 mmHg 72%
    10:00 +24°C° 0.1 mm 2 mps 622 mmHg 66%
    11:00 +24°C° 0.4 mm 2 mps 621 mmHg 67%
    12:00 +24°C° 0.4 mm 2 mps 621 mmHg 68%
    13:00 +24°C° 0.4 mm 2 mps 620 mmHg 69%
    14:00 +23°C° 0.7 mm 2 mps 620 mmHg 70%
    15:00 +23°C° 0.7 mm 2 mps 619 mmHg 72%
    16:00 +23°C° 0.7 mm 2 mps 619 mmHg 73%
    17:00 +20°C° 0.4 mm 2 mps 619 mmHg 79%
    18:00 +19°C° 0.4 mm 2 mps 619 mmHg 85%
    19:00 +19°C° 0.4 mm 1 mps 619 mmHg 90%
    20:00 +18°C° 0.2 mm 1 mps 619 mmHg 89%
    21:00 +18°C° 0.2 mm 1 mps 620 mmHg 87%
    22:00 +18°C° 0.2 mm 1 mps 620 mmHg 86%
    23:00 +17°C° 0 mm 2 mps 620 mmHg 84%

    28 October, Sunday

    Time Temperature Precipitation Wind Pressure Humidity
    00:00 +16°C° 0 mm 2 mps 619 mmHg 83%
    01:00 +16°C° 0 mm 2 mps 619 mmHg 81%
    02:00 +16°C° 0 mm 2 mps 618 mmHg 81%
    03:00 +16°C° 0 mm 2 mps 618 mmHg 81%
    04:00 +16°C° 0 mm 1 mps 618 mmHg 80%
    05:00 +16°C° 0 mm 1 mps 619 mmHg 78%
    06:00 +18°C° 0 mm 1 mps 620 mmHg 76%
    07:00 +19°C° 0 mm 1 mps 620 mmHg 74%
    08:00 +20°C° 0 mm 2 mps 621 mmHg 69%
    09:00 +23°C° 0 mm 2 mps 622 mmHg 63%
    10:00 +25°C° 0 mm 3 mps 622 mmHg 58%
    11:00 +25°C° 0.2 mm 3 mps 622 mmHg 59%
    12:00 +25°C° 0.2 mm 3 mps 621 mmHg 61%
    13:00 +25°C° 0.2 mm 3 mps 620 mmHg 62%
    14:00 +24°C° 0.6 mm 2 mps 619 mmHg 66%
    15:00 +23°C° 0.6 mm 2 mps 619 mmHg 70%
    16:00 +23°C° 0.6 mm 2 mps 618 mmHg 73%
    17:00 +21°C° 0.8 mm 2 mps 619 mmHg 79%
    18:00 +20°C° 0.8 mm 1 mps 619 mmHg 86%
    19:00 +19°C° 0.8 mm 1 mps 619 mmHg 92%
    20:00 +19°C° 0.7 mm 1 mps 619 mmHg 92%
    21:00 +19°C° 0.7 mm 1 mps 620 mmHg 92%
    22:00 +19°C° 0.7 mm 1 mps 620 mmHg 92%
    23:00 +18°C° 0.3 mm 1 mps 620 mmHg 92%

    29 October, Monday

    Time Temperature Precipitation Wind Pressure Humidity
    00:00 +18°C° 0.3 mm 1 mps 619 mmHg 92%
    01:00 +16°C° 0.3 mm 1 mps 619 mmHg 92%
    02:00 +16°C° 0.2 mm 1 mps 619 mmHg 91%
    03:00 +16°C° 0.2 mm 1 mps 618 mmHg 90%
    04:00 +16°C° 0.2 mm 1 mps 618 mmHg 89%
    05:00 +18°C° 0.1 mm 1 mps 619 mmHg 86%
    06:00 +18°C° 0.1 mm 1 mps 619 mmHg 84%
    07:00 +19°C° 0.1 mm 1 mps 620 mmHg 81%
    08:00 +20°C° 0.2 mm 1 mps 621 mmHg 77%
    09:00 +21°C° 0.2 mm 2 mps 621 mmHg 73%
    10:00 +23°C° 0.2 mm 2 mps 622 mmHg 69%
    11:00 +23°C° 0.7 mm 2 mps 621 mmHg 70%
    12:00 +23°C° 0.7 mm 2 mps 620 mmHg 71%
    13:00 +23°C° 0.7 mm 2 mps 620 mmHg 71%
    14:00 +23°C° 1.6 mm 2 mps 619 mmHg 75%
    15:00 +21°C° 1.6 mm 2 mps 619 mmHg 78%
    16:00 +22°C° 1.6 mm 1 mps 618 mmHg 81%
    17:00 +21°C° 1.9 mm 1 mps 618 mmHg 85%
    18:00 +20°C° 1.9 mm 1 mps 619 mmHg 89%
    19:00 +19°C° 1.9 mm 1 mps 619 mmHg 92%
    20:00 +19°C° 1.1 mm 1 mps 619 mmHg 92%
    21:00 +19°C° 1.1 mm 1 mps 619 mmHg 92%
    22:00 +19°C° 1.1 mm 1 mps 620 mmHg 92%
    23:00 +19°C° 0.9 mm 1 mps 619 mmHg 92%
    Show more